Vorticity
0 3 17 12 5 9 -8 0 5 11 11 5 4 3 3 5 7 7 6 5 4 3 2 2 5 6 6 5 6 6 7 7 7 6 5 6 5 5 5 5 6 6 7
9 -4 4 11 12 -4 10 1 1 6 7 10 8 6 3 5 6 7 6 5 4 3 2 3 4 6 6 5 6 6 7 7 7 6 6 6 5 5 5 5 6 6 6
10 5 3 1 -3 8 17 13 9 7 0 8 10 6 6 3 4 5 5 4 4 2 2 2 4 6 6 5 7 6 6 7 7 7 6 7 6 7 4 5 6 6 6
15 10 5 6 1 2 3 25 26 13 -17 16 5 7 13 4 3 6 7 6 4 3 3 2 4 6 6 6 7 7 6 6 6 6 6 6 6 5 6 5 5 5 6
21 12 9 14 10 6 6 6 21 6 11 -14 -13 9 7 8 5 5 8 5 3 4 4 4 4 4 5 5 7 7 7 6 6 6 7 6 6 6 5 5 6 6 6
14 8 11 7 15 9 4 4 -0 4 7 2 41 8 8 -1 4 8 2 5 4 3 2 2 7 10 6 5 7 7 6 7 6 6 7 6 6 6 6 6 6 6 6
28 16 11 12 8 10 6 3 15 24 9 8 14 17 12 -4 12 -5 4 17 4 -1 2 1 20 18 8 5 7 6 6 6 6 6 6 7 6 6 6 6 7 6 6
14 27 19 15 7 9 9 5 20 -8 36 21 19 22 9 4 3 -2 10 -7 6 3 17 -1 5 11 10 7 7 7 6 6 7 6 6 6 7 6 6 6 6 7 7
5 12 23 34 16 2 7 2 3 16 22 17 19 -15 10 17 -1 -7 -0 18 -2 19 2 5 7 13 9 9 8 7 7 7 7 7 7 7 7 7 7 6 6 7 7
14 9 16 16 33 14 2 8 8 7 14 -19 37 16 -13 6 1 1 15 4 12 4 15 15 19 13 6 11 7 7 7 7 8 8 8 8 7 7 7 7 7 7 7
7 6 7 14 10 28 19 0 6 6 21 5 -10 -4 22 10 9 8 -4 -6 -3 8 11 6 1 11 9 10 7 7 6 6 7 9 9 8 8 8 7 7 7 8 8
9 7 4 3 15 13 27 20 3 5 0 14 15 10 -9 10 7 24 15 16 -1 6 4 15 1 14 4 10 6 7 6 7 9 8 8 9 8 8 7 8 7 7 6
6 8 6 11 14 11 14 10 18 16 16 8 4 16 5 14 19 -15 -3 -6 -1 8 3 9 3 8 7 8 7 7 7 6 8 7 8 8 8 8 9 8 9 8 8
21 24 5 3 6 12 8 14 13 5 11 16 14 4 4 12 6 22 16 13 15 12 8 5 5 5 8 5 6 5 5 2 6 7 7 7 9 9 9 8 8 7 7
4 -7 13 24 -5 2 7 10 18 29 13 15 18 15 1 8 24 63 14 8 -2 8 2 1 -4 -11 -4 5 7 10 6 6 9 10 10 8 8 8 8 9 9 8 8
20 14 7 24 37 3 3 7 7 17 18 19 22 15 8 -1 2 72 2 9 1 -8 -1 6 23 -18 -13 -1 -13 2 3 -10 -1 6 10 7 8 9 10 8 8 8 8
8 6 6 12 15 30 10 5 5 6 13 16 13 12 9 9 3 6 14 -3 35 12 76 1 1 19 1 12 6 3 24 11 7 8 7 7 11 11 10 8 7 8 9
8 19 3 1 19 24 11 12 7 3 8 8 12 16 15 11 12 11 17 22 5 27 -6 92 3 17 31 -0 35 7 5 -11 16 6 9 8 8 7 7 7 7 7 7
8 19 21 10 13 16 17 5 10 11 7 6 8 8 18 16 10 5 9 21 20 4 12 40 7 77 30 10 27 -0 7 29 -4 4 -2 -5 5 1 7 11 10 8 7
10 22 18 12 9 14 16 9 8 5 8 14 13 14 11 14 21 12 14 9 3 4 2 8 23 22 28 41 6 43 24 24 -1 19 7 -1 19 13 7 7 9 9 8
19 14 12 14 18 23 27 25 14 14 15 16 18 21 16 15 14 17 19 16 8 8 3 8 8 -4 32 5 25 27 0 29 28 6 1 11 24 7 8 11 9 8 3
12 11 21 25 24 27 29 32 33 31 31 30 26 24 25 23 20 19 17 16 17 23 18 20 5 9 15 -9 21 17 18 1 12 7 13 21 13 10 8 7 7 5 5
12 20 16 12 10 9 8 9 12 12 12 12 13 12 10 8 9 12 15 16 20 22 23 17 15 36 13 14 3 10 -2 42 5 18 14 11 7 2 5 8 5 6 6
9 12 6 8 7 9 7 6 7 8 3 2 -2 -8 -1 5 6 6 8 10 5 7 10 12 23 18 19 17 18 -15 -2 29 5 12 20 22 12 11 6 5 8 5 6
5 8 3 4 3 4 2 0 0 1 -3 -7 -5 -3 1 4 6 6 8 9 12 12 10 10 4 16 11 8 17 8 17 5 26 9 19 16 10 6 6 9 8 7 8
3 6 8 -1 0 8 5 2 -15 -13 -11 1 -7 -1 0 2 8 8 11 11 11 11 13 15 17 14 18 13 6 8 10 8 4 8 7 7 9 8 9 9 9 7 7
Height
3054 3056 3059 3062 3066 3069 3072 3074 3083 3093 3099 3104 3110 3116 3122 3126 3129 3132 3136 3140 3144 3147 3150 3153 3154 3156 3158 3159 3161 3162 3163 3164 3164 3165 3166 3166 3167 3167 3167 3167 3167 3166 3166
3046 3049 3054 3058 3062 3066 3070 3072 3081 3087 3093 3099 3107 3113 3117 3121 3124 3128 3132 3135 3139 3143 3146 3148 3150 3152 3154 3156 3157 3158 3159 3160 3161 3162 3163 3164 3165 3164 3164 3165 3164 3164 3164
3039 3044 3047 3052 3058 3060 3064 3069 3073 3080 3086 3092 3097 3104 3108 3113 3117 3123 3127 3131 3135 3138 3141 3144 3146 3148 3149 3152 3153 3154 3155 3156 3157 3158 3160 3160 3161 3161 3161 3161 3161 3161 3160
3032 3037 3042 3046 3051 3056 3060 3064 3070 3075 3081 3084 3090 3096 3104 3109 3116 3120 3124 3127 3130 3133 3136 3139 3141 3143 3145 3147 3149 3150 3151 3152 3153 3154 3155 3156 3157 3157 3158 3158 3158 3158 3158
3027 3030 3035 3040 3046 3049 3054 3058 3062 3068 3074 3077 3084 3089 3095 3104 3109 3113 3117 3120 3124 3127 3131 3134 3136 3138 3140 3142 3143 3145 3146 3148 3149 3150 3150 3151 3152 3153 3153 3154 3154 3155 3155
3021 3023 3028 3033 3037 3041 3044 3049 3056 3059 3063 3069 3074 3079 3088 3096 3102 3105 3110 3114 3118 3121 3125 3128 3130 3132 3134 3137 3138 3139 3141 3143 3144 3144 3145 3146 3147 3148 3149 3149 3150 3150 3150
3017 3018 3020 3023 3028 3033 3038 3043 3046 3049 3056 3055 3068 3074 3080 3086 3096 3099 3105 3108 3111 3115 3120 3121 3123 3125 3128 3130 3132 3134 3135 3137 3139 3140 3140 3141 3141 3142 3143 3144 3145 3146 3146
3014 3015 3017 3020 3024 3028 3032 3037 3039 3044 3047 3051 3060 3069 3075 3080 3087 3093 3099 3102 3105 3109 3111 3114 3116 3118 3120 3124 3126 3127 3129 3131 3133 3135 3135 3135 3137 3137 3138 3139 3140 3140 3141
3012 3011 3012 3013 3017 3022 3026 3030 3035 3038 3040 3046 3049 3061 3069 3073 3078 3085 3090 3095 3098 3102 3104 3106 3108 3111 3114 3117 3119 3122 3123 3125 3127 3130 3131 3131 3131 3131 3132 3132 3134 3135 3135
3009 3008 3009 3010 3011 3015 3021 3027 3030 3032 3036 3044 3047 3051 3060 3067 3071 3075 3080 3085 3088 3093 3097 3098 3100 3103 3107 3110 3112 3114 3116 3118 3120 3123 3124 3124 3124 3125 3126 3127 3128 3128 3129
3005 3005 3006 3006 3007 3010 3013 3018 3023 3027 3030 3035 3039 3045 3052 3055 3062 3066 3072 3076 3081 3082 3088 3090 3094 3096 3099 3103 3106 3108 3109 3111 3113 3115 3117 3117 3117 3118 3119 3120 3120 3122 3122
3002 3002 3002 3002 3002 3005 3007 3011 3017 3020 3025 3030 3033 3036 3041 3046 3051 3055 3062 3068 3074 3076 3078 3081 3084 3089 3091 3093 3098 3100 3102 3104 3106 3108 3109 3111 3110 3111 3111 3112 3113 3114 3115
2998 2998 2998 2998 2998 3000 3003 3006 3010 3015 3018 3021 3026 3030 3033 3037 3040 3045 3054 3060 3063 3068 3071 3071 3074 3079 3083 3084 3088 3090 3094 3096 3097 3099 3101 3103 3104 3104 3106 3106 3106 3106 3108
2990 2991 2993 2993 2994 2996 2998 3000 3004 3008 3011 3013 3015 3020 3026 3030 3034 3038 3043 3047 3054 3058 3061 3065 3068 3071 3073 3075 3077 3080 3082 3086 3087 3089 3091 3093 3096 3096 3097 3099 3100 3101 3101
2985 2986 2987 2987 2989 2992 2992 2995 2997 3000 3004 3006 3009 3013 3018 3021 3023 3025 3030 3037 3042 3047 3052 3055 3058 3060 3063 3066 3068 3069 3072 3077 3078 3078 3081 3084 3086 3087 3092 3093 3094 3094 3094
2981 2981 2980 2980 2981 2984 2987 2989 2992 2993 2996 2999 3002 3006 3010 3013 3014 3016 3017 3021 3030 3037 3040 3043 3046 3044 3051 3053 3056 3059 3062 3064 3066 3074 3074 3074 3077 3079 3082 3084 3086 3087 3088
2976 2975 2974 2974 2975 2977 2980 2983 2985 2987 2990 2992 2995 2998 3001 3005 3008 3009 3012 3015 3016 3020 3023 3030 3032 3030 3037 3042 3041 3045 3046 3048 3056 3061 3064 3065 3069 3070 3072 3075 3078 3079 3080
2970 2970 2969 2970 2969 2970 2973 2975 2979 2982 2984 2986 2987 2990 2992 2994 2997 3001 3002 3006 3008 3010 3010 3010 3014 3021 3021 3026 3030 3033 3034 3034 3041 3047 3052 3054 3057 3060 3063 3066 3068 3071 3072
2961 2962 2962 2963 2964 2965 2966 2968 2971 2973 2976 2978 2980 2983 2985 2988 2990 2992 2994 2995 2999 3001 3001 3003 3008 3009 3010 3015 3018 3020 3022 3024 3028 3032 3036 3043 3048 3052 3056 3057 3059 3061 3064
2955 2955 2955 2956 2957 2958 2960 2962 2964 2966 2968 2971 2973 2975 2978 2981 2984 2986 2988 2990 2992 2994 2995 3001 3001 2999 3002 3009 3009 3013 3014 3016 3021 3025 3029 3033 3036 3040 3045 3048 3051 3052 3054
2949 2949 2950 2950 2950 2951 2953 2955 2957 2959 2961 2963 2966 2969 2972 2975 2977 2980 2981 2983 2985 2988 2991 2994 2992 2994 2996 2999 3000 3002 3003 3008 3012 3018 3021 3023 3024 3031 3035 3038 3041 3045 3043
2944 2944 2945 2945 2945 2947 2949 2949 2951 2954 2956 2959 2961 2964 2967 2970 2972 2974 2976 2978 2980 2982 2984 2984 2985 2987 2990 2991 2992 2994 2997 3000 3001 3006 3011 3015 3016 3022 3026 3029 3033 3035 3034
2941 2942 2943 2945 2945 2946 2948 2949 2950 2952 2955 2957 2959 2961 2963 2965 2967 2969 2970 2970 2971 2973 2975 2976 2978 2978 2982 2985 2984 2986 2988 2993 2996 2999 2999 3002 3006 3012 3016 3020 3021 3024 3026
2939 2941 2942 2944 2945 2945 2946 2948 2948 2950 2952 2954 2955 2957 2959 2961 2962 2963 2964 2965 2966 2967 2967 2968 2969 2975 2974 2975 2977 2980 2983 2987 2991 2990 2991 2994 2998 3003 3009 3010 3012 3014 3016
2936 2938 2940 2941 2943 2943 2943 2944 2945 2946 2948 2950 2952 2954 2955 2956 2957 2958 2959 2961 2962 2962 2963 2963 2963 2963 2967 2970 2972 2975 2977 2980 2982 2982 2982 2985 2990 2994 2998 3000 3003 3004 3004
2933 2935 2936 2937 2939 2940 2941 2942 2943 2943 2944 2946 2946 2947 2948 2949 2951 2952 2953 2953 2954 2955 2955 2956 2957 2959 2961 2964 2966 2969 2969 2970 2971 2972 2976 2979 2982 2985 2989 2990 2992 2993 2993